Showing default

INTELSAT 33E, 41748

Orbit data source: Space-Track

INTELSAT 33E, 41748 is a payload satellite owned by Intelsat SA (US) (US) in GEO that was launched on Wed, 24 Aug 2016 UTC via an ARIANE 5ECA launch vehicle from the French Guiana (FRGUI). Payload-class satellites include a variety of spacecraft equipped with specific instruments for various scientific and technological missions. These include communications satellites like Starlink; space stations such as the ISS; scientific satellites like the Hubble; Earth observation satellites from companies like Planet Labs, Umbra, and HawkEye 360; GPS; miniature CubeSats for education and research; and military/defense satellites.

Not visible in the next 10 days
Identifier
41748, 2016-053B
Orbit
GEO
Last TLE update
13 hours ago
Origin
Manufacturer
Boeing/ES
Mission
Non-operational Commercial Communications
Bus & Motor
BSS-702MP, LEROS-2B
Mass
6,552 kg wet, ~2,946 kg dry
Launch date (UTC)
2016-08-24 (9 years ago)
Launch vehicle
ARIANE 5ECA
Launch site
French Guiana (FRGUI)
Object type
Payload
Rocket body
Debris
Shape & HBR
Box + 2 Pan, 44 m
Radar Cross Section
59.953 m², Large (>1 m²)

Expand to show TLE details & history

TLE from 13 hours ago
0 INTELSAT 33E
1 41748U 16053B   25181.70808368 -.00000337  00000-0  00000-0 0  9990
2 41748   0.6654  90.4453 0022312 178.6924  34.5080  1.00287173 32722
Epoch: 2025-06-30T16:59Z
TLE epoch observation values (Epoch: 2025-06-30T16:59:38.429Z)
Latitude
-0.38552°
Longitude
129.88045°
Altitude
35,704.012 km
Speed
3.081 km/s
True Right ascension
20h 15m 13s
True Declination
0° 23' 06"
Sunlit
Object was in daylight at epoch
Visualization orbit readout
Latitude
0.56224°
Longitude
-28.52929°
Altitude
35,834.198 km
Speed
3.071 km/s
Apparent Right ascension
09h 21m 17s
Apparent Declination
-4° 37' 25"
Sunlit
Object is in daylight
Visualization observer readout
Local Sidereal Time
18:02:54
Azimuth
294.923° NW
Elevation
-33.176°
Doppler factor
1
Orbital elements
Apogee altitude
35,877.423 km
Perigee altitude
35,689.281 km
Semi-major axis
42,161.489 km
Eccentricity
0.00223
Inclination
0.6654°
RAAN
90.4453°
Arg. of periapsis
178.6924°
True anomaly
Unknown
Mean anomaly
34.508°
Eccentric anomaly
Unknown
Mean motion
0.25071 °/min
Orbital period
1,435.93 mins
BSTAR
0
Loading historical data...
41748 neighbors
Loading maneuver chart data...
Loading SW <> Apogee altitude chart data...
Loading historical data...
Loading historical data...
Loading historical data...
Loading historical data...
Loading historical data...
Loading historical data...
Loading historical data...

INTELSAT 33E Visibility

Observer location: undefined°, undefined°

INTELSAT 33E is likely not visible in the next few days
Span
Click to sort rows by Start time (UTC) header in descending order
Start Az.
Max El. time (UTC)
Max El. Az.
Max El.
End time (UTC)
End Az.
|